TimeMST,TemperatureF,Dew PointF,Humidity,Sea Level PressureIn,VisibilityMPH,Wind Direction,Wind SpeedMPH,Gust SpeedMPH,PrecipitationIn,Events,Conditions,WindDirDegrees,DateUTC
12:15 AM,-4.0,-31.0,26,30.39,10.0,ENE,5.8,-,N/A,,Clear,60,2014-01-07 07:15:00
12:35 AM,-4.0,-29.2,29,30.39,10.0,Calm,Calm,-,N/A,,Clear,0,2014-01-07 07:35:00
12:55 AM,-4.0,-29.2,29,30.38,10.0,Calm,Calm,-,N/A,,Clear,0,2014-01-07 07:55:00
1:15 AM,-7.6,-9999,N/A,30.38,10.0,SE,3.5,-,N/A,,Clear,140,2014-01-07 08:15:00
1:35 AM,-7.6,-29.2,34,30.38,10.0,Calm,Calm,-,N/A,,Clear,0,2014-01-07 08:35:00
1:55 AM,-4.0,-22.0,42,30.39,10.0,Calm,Calm,-,N/A,,Clear,0,2014-01-07 08:55:00
2:15 AM,-5.8,-18.4,55,30.39,10.0,East,3.5,-,N/A,,Clear,80,2014-01-07 09:15:00
2:35 AM,-5.8,-18.4,55,30.39,10.0,Calm,Calm,-,N/A,,Clear,0,2014-01-07 09:35:00
2:55 AM,-7.6,-20.2,54,30.39,10.0,Calm,Calm,-,N/A,,Clear,0,2014-01-07 09:55:00
3:15 AM,-9.4,-25.6,45,30.39,10.0,SSE,3.5,-,N/A,,Clear,150,2014-01-07 10:15:00
3:35 AM,-7.6,-9999,N/A,30.39,10.0,Calm,Calm,-,N/A,,Clear,0,2014-01-07 10:35:00
3:55 AM,-5.8,-9999,N/A,30.39,10.0,Calm,Calm,-,N/A,,Clear,0,2014-01-07 10:55:00
4:15 AM,-7.6,-9999,N/A,30.38,10.0,Calm,Calm,-,N/A,,Clear,0,2014-01-07 11:15:00
4:35 AM,-9.4,-9999,N/A,30.38,10.0,SSE,3.5,-,N/A,,Clear,160,2014-01-07 11:35:00
4:55 AM,-9.4,-29.2,37,30.38,10.0,Calm,Calm,-,N/A,,Clear,0,2014-01-07 11:55:00
5:15 AM,-7.6,-25.6,41,30.38,10.0,Calm,Calm,-,N/A,,Clear,0,2014-01-07 12:15:00
5:35 AM,-7.6,-25.6,41,30.38,10.0,Calm,Calm,-,N/A,,Clear,0,2014-01-07 12:35:00
5:55 AM,-7.6,-25.6,41,30.37,10.0,Calm,Calm,-,N/A,,Clear,0,2014-01-07 12:55:00
6:15 AM,-9.4,-27.4,41,30.37,10.0,Calm,Calm,-,N/A,,Clear,0,2014-01-07 13:15:00
6:35 AM,-9.4,-27.4,41,30.37,10.0,Calm,Calm,-,N/A,,Clear,0,2014-01-07 13:35:00
6:55 AM,-9.4,-20.2,59,30.37,10.0,Calm,Calm,-,N/A,,Clear,0,2014-01-07 13:55:00
7:15 AM,-7.6,-16.6,65,30.37,10.0,Calm,Calm,-,N/A,,Clear,0,2014-01-07 14:15:00
7:35 AM,-9.4,-18.4,65,30.37,9.0,Calm,Calm,-,N/A,,Clear,0,2014-01-07 14:35:00
7:55 AM,-9.4,-20.2,59,30.37,10.0,Calm,Calm,-,N/A,,Clear,0,2014-01-07 14:55:00
8:15 AM,-9.4,-16.6,71,30.37,10.0,Calm,Calm,-,N/A,,Clear,0,2014-01-07 15:15:00
8:35 AM,-9.4,-16.6,71,30.36,10.0,Calm,Calm,-,N/A,,Clear,0,2014-01-07 15:35:00
8:55 AM,-7.6,-20.2,54,30.37,10.0,Calm,Calm,-,N/A,,Clear,0,2014-01-07 15:55:00
9:15 AM,-7.6,-22.0,50,30.38,10.0,Calm,Calm,-,N/A,,Clear,0,2014-01-07 16:15:00
9:35 AM,-4.0,-9999,N/A,30.36,10.0,Calm,Calm,-,N/A,,Clear,0,2014-01-07 16:35:00
9:55 AM,-2.2,-23.8,35,30.36,10.0,Calm,Calm,-,N/A,,Clear,0,2014-01-07 16:55:00
10:15 AM,-2.2,-18.4,46,30.35,10.0,Calm,Calm,-,N/A,,Clear,0,2014-01-07 17:15:00
10:35 AM,-0.4,-20.2,39,30.34,10.0,Calm,Calm,-,N/A,,Clear,0,2014-01-07 17:35:00
10:55 AM,1.4,-11.2,56,30.33,10.0,Calm,Calm,-,N/A,,Clear,0,2014-01-07 17:55:00
11:15 AM,3.2,-11.2,51,30.31,10.0,ESE,3.5,-,N/A,,Clear,120,2014-01-07 18:15:00
11:35 AM,5.0,-7.6,56,30.29,10.0,Calm,Calm,-,N/A,,Clear,0,2014-01-07 18:35:00
11:55 AM,6.8,-5.8,56,30.27,10.0,Calm,Calm,-,N/A,,Clear,0,2014-01-07 18:55:00
12:15 PM,6.8,-14.8,37,30.25,10.0,Calm,Calm,-,N/A,,Clear,0,2014-01-07 19:15:00
12:35 PM,8.6,-14.8,34,30.23,10.0,Calm,Calm,-,N/A,,Clear,0,2014-01-07 19:35:00
12:55 PM,8.6,-18.4,28,30.21,10.0,SE,3.5,-,N/A,,Clear,130,2014-01-07 19:55:00
1:15 PM,8.6,-14.8,34,30.20,10.0,Calm,Calm,-,N/A,,Clear,0,2014-01-07 20:15:00
1:35 PM,10.4,1.4,67,30.19,10.0,Calm,Calm,-,N/A,,Clear,0,2014-01-07 20:35:00
1:55 PM,10.4,3.2,73,30.18,10.0,Calm,Calm,-,N/A,,Clear,0,2014-01-07 20:55:00
2:15 PM,10.4,-2.2,57,30.18,10.0,Calm,Calm,-,N/A,,Clear,0,2014-01-07 21:15:00
2:35 PM,12.2,1.4,62,30.17,10.0,NNE,3.5,-,N/A,,Clear,30,2014-01-07 21:35:00
2:55 PM,14.0,1.4,57,30.17,10.0,Calm,Calm,-,N/A,,Clear,0,2014-01-07 21:55:00
3:15 PM,14.0,1.4,57,30.17,10.0,Calm,Calm,-,N/A,,Clear,0,2014-01-07 22:15:00
3:35 PM,14.0,1.4,57,30.18,10.0,South,3.5,-,N/A,,Partly Cloudy,170,2014-01-07 22:35:00
3:55 PM,12.2,1.4,62,30.17,10.0,Calm,Calm,-,N/A,,Mostly Cloudy,0,2014-01-07 22:55:00
4:15 PM,14.0,3.2,62,30.16,10.0,NE,4.6,-,N/A,,Overcast,50,2014-01-07 23:15:00
4:35 PM,15.8,1.4,53,30.16,10.0,North,3.5,-,N/A,,Mostly Cloudy,360,2014-01-07 23:35:00
4:55 PM,15.8,3.2,58,30.15,10.0,Calm,Calm,-,N/A,,Scattered Clouds,0,2014-01-07 23:55:00
5:35 PM,14.0,1.4,57,30.16,10.0,WSW,4.6,-,N/A,,Partly Cloudy,240,2014-01-08 00:35:00
5:55 PM,12.2,1.4,62,30.15,10.0,South,4.6,-,N/A,,Clear,170,2014-01-08 00:55:00
6:15 PM,12.2,-0.4,57,30.15,10.0,Calm,Calm,-,N/A,,Clear,0,2014-01-08 01:15:00
6:35 PM,12.2,3.2,67,30.14,10.0,East,4.6,-,N/A,,Clear,90,2014-01-08 01:35:00
7:15 PM,12.2,3.2,67,30.14,10.0,Calm,Calm,-,N/A,,Mostly Cloudy,0,2014-01-08 02:15:00
7:35 PM,10.4,1.4,67,30.13,10.0,South,4.6,-,N/A,,Mostly Cloudy,170,2014-01-08 02:35:00
7:55 PM,10.4,1.4,67,30.14,10.0,Calm,Calm,-,N/A,,Scattered Clouds,0,2014-01-08 02:55:00
8:15 PM,10.4,3.2,73,30.13,10.0,South,3.5,-,N/A,,Partly Cloudy,190,2014-01-08 03:15:00
8:35 PM,10.4,1.4,67,30.13,10.0,Calm,Calm,-,N/A,,Partly Cloudy,0,2014-01-08 03:35:00
8:55 PM,10.4,1.4,67,30.13,10.0,SSW,3.5,-,N/A,,Clear,210,2014-01-08 03:55:00
9:15 PM,8.6,-2.2,62,30.13,10.0,South,3.5,-,N/A,,Clear,190,2014-01-08 04:15:00
9:35 PM,8.6,3.2,79,30.14,10.0,Calm,Calm,-,N/A,,Clear,0,2014-01-08 04:35:00
9:55 PM,8.6,-0.4,67,30.13,10.0,NNE,3.5,-,N/A,,Clear,30,2014-01-08 04:55:00
10:15 PM,6.8,-2.2,67,30.13,10.0,Calm,Calm,-,N/A,,Clear,0,2014-01-08 05:15:00
10:35 PM,3.2,-2.2,78,30.13,10.0,Calm,Calm,-,N/A,,Partly Cloudy,0,2014-01-08 05:35:00
10:55 PM,3.2,-0.4,85,30.12,10.0,Calm,Calm,-,N/A,,Mostly Cloudy,0,2014-01-08 05:55:00
11:15 PM,5.0,-0.4,78,30.12,10.0,Calm,Calm,-,N/A,,Overcast,0,2014-01-08 06:15:00
11:35 PM,6.8,5.0,92,30.11,10.0,Calm,Calm,-,N/A,,Overcast,0,2014-01-08 06:35:00
11:55 PM,8.6,-0.4,67,30.11,10.0,Calm,Calm,-,N/A,,Overcast,0,2014-01-08 06:55:00